utc_time,unix_time,temp,cond,salinity,tds,chla_rfu,chla_ugl,bga_rfu,bga_ugl,odo,sat,nitrate_um,nitrogen_mg,stage,area,discharge,total_discharge
2019-06-01 00:00:00+00:00,1559347200,20.821,43256.54,30.61,30.56,,,,,10.23,136.76,37.704,0.52812,1.0395,1.6632,0.0571,0.1142
2019-06-01 00:20:00+00:00,1559348401,20.803,41669.14,29.38,29.45,,,,,10.4,138.1,32.855,0.46019,1.041,1.6656,-0.0047,-0.0094
2019-06-01 00:40:00+00:00,1559349602,20.769,41058.96,28.92,29.03,,,,,10.56,139.73,34.191,0.47891,1.042,1.6672,0.0173,0.0346
2019-06-01 01:00:00+00:00,1559350801,20.666,42863.66,30.41,30.38,,,,,10,133.16,32.775,0.45907,1.0435,1.6696,0.0283,0.0566
2019-06-01 01:20:00+00:00,1559352001,20.573,41649.21,29.52,29.57,,,,,10.03,132.66,32.637,0.45712,1.044,1.6704,0.1194,0.2388
2019-06-01 01:40:00+00:00,1559353202,20.479,41657.08,29.59,29.64,,,,,10.08,133.22,34.605,0.48471,1.043,1.6688,0.0832,0.1664
2019-06-01 02:00:00+00:00,1559354401,20.399,42926.29,30.66,30.59,,,,,9.68,128.45,34.255,0.47978,1.0465,1.6744,0.04415,0.0883
2019-06-01 02:20:00+00:00,1559355602,20.254,42243.84,30.22,30.2,,,,,9.72,128.35,33.232,0.46547,1.05,1.68,0.0506,0.1012
2019-06-01 02:40:00+00:00,1559356801,20.198,43687.84,31.41,31.26,,,,,9.53,126.67,36.043,0.50484,1.05,1.68,0.03,0.06
2019-06-01 03:00:00+00:00,1559358001,20.169,41859.87,29.97,29.97,,,,,9.43,124.19,35.096,0.49157,1.052,1.6832,0.0982,0.1964
2019-06-01 03:20:00+00:00,1559359201,20.077,43465.46,31.32,31.19,,,,,8.6,113.95,35.144,0.49226,1.053,1.6848,0.1395,0.279
2019-06-01 03:40:00+00:00,1559360402,20.086,41823.33,30,30,,,,,7.7,101.25,36.974,0.51787,1.054,1.6864,0.0984,0.1968
2019-06-01 04:00:00+00:00,1559361601,19.987,43334.78,31.29,31.15,,,,,7.75,102.57,49.666,0.69563,1.055,1.688,0.10565,0.2113
2019-06-01 04:20:00+00:00,1559362801,19.899,45208.59,32.87,32.56,,,,,6.39,85.08,46.688,0.65394,1.056,1.6896,0.0859,0.1718
2019-06-01 04:40:00+00:00,1559364002,19.645,44756.2,32.7,32.41,,,,,6.12,81.13,57.347,0.80324,1.061,1.6976,0.0719,0.1438
2019-06-01 05:00:00+00:00,1559365201,19.299,44083.61,32.42,32.16,,,,,6.23,81.9,62.767,0.87915,1.061,1.6976,0.1678,0.3356
2019-06-01 05:20:00+00:00,1559366402,19.414,45105.07,33.17,32.82,,,,,5.06,66.96,95.047,1.33128,1.063,1.7008,0.1425,0.285
2019-06-01 05:40:00+00:00,1559367601,18.929,44161.45,32.77,32.47,,,,,5.6,73.23,104.74,1.46704,1.064,1.7024,0.1972,0.3944
2019-06-01 06:00:00+00:00,1559368801,18.596,45333.32,34.02,33.57,,,,,5.57,72.98,113.511,1.58992,1.0655,1.7048,0.0827,0.1654
2019-06-01 06:20:00+00:00,1559370002,18.474,45132.18,33.95,33.51,,,,,5.41,70.67,115.138,1.61272,1.068,1.7088,0.1368,0.2736
2019-06-01 06:40:00+00:00,1559371201,18.133,43749.14,33.06,32.73,,,,,5.84,75.35,123.689,1.7325,1.069,1.7104,0.087,0.174
2019-06-01 07:00:00+00:00,1559372402,17.987,42899.69,32.46,32.2,,,,,5.67,72.71,121.098,1.69618,1.0705,1.7128,0.06375,0.1275
2019-06-01 07:20:00+00:00,1559373601,17.907,43427.16,32.97,32.65,,,,,5.43,69.79,122.02,1.7091,1.071,1.7136,0.0888,0.1776
2019-06-01 07:40:00+00:00,1559374802,17.778,42703.83,32.46,32.2,,,,,4.4,56.19,127.414,1.78464,1.072,1.7152,0.1115,0.223
2019-06-01 08:00:00+00:00,1559376001,17.803,41094.99,31.08,30.97,,,,,7.23,91.71,29.338,0.41093,1.0725,1.716,0.07355,0.1471
2019-06-01 08:20:00+00:00,1559377202,17.677,39749.01,30.04,30.04,,,,,6.55,82.26,37.013,0.51841,1.073,1.7168,0.1439,0.2878
2019-06-01 08:40:00+00:00,1559378401,17.587,41800.07,31.85,31.65,,,,,5.83,73.9,79.303,1.11077,1.073,1.7168,0.1795,0.359
2019-06-01 09:00:00+00:00,1559379601,17.456,39660.34,30.13,30.12,,,,,6.7,83.91,22.791,0.31921,1.0755,1.7208,0.0332,0.0664
2019-06-01 09:20:00+00:00,1559380801,17.443,39157.29,29.71,29.75,,,,,7.32,91.37,21.606,0.30261,1.075,1.72,0.0713,0.1426
2019-06-01 09:40:00+00:00,1559382001,17.54,39385.87,29.84,29.85,,,,,6.23,78.01,31.438,0.44034,1.073,1.7168,0.0307,0.0614
2019-06-01 10:00:00+00:00,1559383201,17.715,39749.36,30.01,30.01,,,,,5.97,75.06,30.84,0.43197,1.073,1.7168,0.017,0.034
2019-06-01 10:20:00+00:00,1559384401,17.948,40615.46,30.57,30.51,,,,,5.69,72.06,29.96,0.41964,1.054,1.6864,-0.5032,-1.0064
2019-06-01 10:40:00+00:00,1559385601,18.02,39421.07,29.52,29.57,,,,,4.98,62.79,29.165,0.40851,1.038,1.6608,-0.7999,-1.5998
2019-06-01 11:00:00+00:00,1559386802,18.182,38362.55,28.52,28.67,,,,,4.46,56.04,28.727,0.40237,1.0285,1.6456,-0.7619,-1.5238
2019-06-01 11:20:00+00:00,1559388001,18.282,38612.57,28.66,28.79,,,,,4.23,53.28,26.837,0.37591,1.017,1.6272,-0.7341,-1.4682
2019-06-01 11:40:00+00:00,1559389201,18.544,39545.31,29.25,29.32,,,,,3.54,45.02,24.768,0.34694,1.011,1.6176,-0.7266,-1.4532
2019-06-01 12:00:00+00:00,1559390402,18.581,41055.95,30.47,30.42,,,,,3.27,41.96,24.002,0.33618,1.001,1.6016,-0.68225,-1.3645
2019-06-01 12:20:00+00:00,1559391601,18.502,40402.06,29.98,29.98,,,,,2.89,36.87,21.182,0.29671,0.991,1.5856,-0.6401,-1.2802
2019-06-01 12:40:00+00:00,1559392801,18.537,37961.4,27.95,28.15,,,,,2.48,31.35,22.277,0.31206,0.986,1.5776,-0.5894,-1.1788
2019-06-01 13:00:00+00:00,1559394001,18.53,37763.09,27.79,28.01,,,,,1.81,22.87,19.52,0.27342,0.974,1.5584,-0.58845,-1.1769
2019-06-01 13:20:00+00:00,1559395202,18.428,39904.05,29.62,29.66,,,,,1.07,13.64,21.444,0.30039,0.967,1.5472,-0.5195,-1.039
2019-06-01 13:40:00+00:00,1559396401,18.293,39209.76,29.15,29.23,,,,,0.9,11.32,24.951,0.34949,0.973,1.5568,-0.3417,-0.6834
2019-06-01 14:00:00+00:00,1559397602,18.205,37592.37,27.87,28.08,,,,,0.76,9.56,28.067,0.39309,0.9875,1.58,0.0243,0.0486
2019-06-01 14:20:00+00:00,1559398801,18.079,38165.66,28.43,28.59,,,,,0.79,9.94,21.153,0.29628,0.981,1.5696,0.0118,0.0236
2019-06-01 14:40:00+00:00,1559400002,18.07,39741.68,29.75,29.77,,,,,1.03,12.99,22.847,0.31999,0.98,1.568,0.0986,0.1972
2019-06-01 15:00:00+00:00,1559401202,18.009,40389.82,30.33,30.3,,,,,1.22,15.45,19.318,0.27058,0.987,1.5792,-0.00885,-0.0177
2019-06-01 15:20:00+00:00,1559402402,18.139,37161.04,27.56,27.8,,,,,2.16,27.01,19.984,0.27992,0.986,1.5776,0.0518,0.1036
2019-06-01 15:40:00+00:00,1559403602,18.151,36643.18,27.13,27.4,,,,,2.03,25.26,22.328,0.31276,0.987,1.5792,0,0
2019-06-01 16:00:00+00:00,1559404801,18.193,36027.15,26.6,26.92,,,,,3.14,39.02,21.16,0.29638,0.9885,1.5816,0.0601,0.1202
2019-06-01 16:20:00+00:00,1559406001,18.231,39589.19,29.5,29.55,,,,,2.26,28.65,21.941,0.30733,0.988,1.5808,0.0445,0.089
2019-06-01 16:40:00+00:00,1559407201,18.308,38437.96,28.5,28.65,,,,,3,37.83,21.687,0.30377,0.99,1.584,0.0684,0.1368
2019-06-01 17:00:00+00:00,1559408401,,,,,,,,,,,21.587,0.30234,0.99,1.584,0.0669,0.1338
2019-06-01 17:20:00+00:00,1559409601,18.317,37849.48,28.01,28.2,,,,,5.01,62.97,22.748,0.31862,0.989,1.5824,0.0995,0.199
2019-06-01 17:40:00+00:00,1559410801,18.336,35287.18,25.9,26.28,,,,,6.47,80.33,23.378,0.32743,0.991,1.5856,0.0447,0.0894
2019-06-01 18:00:00+00:00,1559412002,18.339,33097.2,24.13,24.65,,,,,6.48,79.66,23.901,0.33479,0.9945,1.5912,0.06425,0.1285
2019-06-01 18:20:00+00:00,1559413202,18.339,35980.69,26.46,26.8,,,,,8.04,100.12,19.351,0.27102,0.996,1.5936,0.1018,0.2036
2019-06-01 18:40:00+00:00,1559414402,18.47,34870.93,25.48,25.9,,,,,8.65,107.4,19.455,0.27252,0.997,1.5952,0.0629,0.1258
2019-06-01 19:00:00+00:00,1559415601,18.655,35482.66,25.86,26.24,,,,,9.46,118.09,21.609,0.30268,0.999,1.5984,0.0533,0.1066
2019-06-01 19:20:00+00:00,1559416801,18.86,35642.84,25.86,26.25,,,,,10.19,127.8,20.287,0.28418,0.998,1.5968,0.1095,0.219
2019-06-01 19:40:00+00:00,1559418002,19.124,36817.97,26.64,26.96,,,,,10.72,135.66,20.512,0.28733,0.998,1.5968,0.0615,0.123
2019-06-01 20:00:00+00:00,1559419201,19.284,35850.59,25.77,26.16,,,,,10.9,137.73,18.651,0.26125,0.9995,1.5992,0.09165,0.1833
2019-06-01 20:20:00+00:00,1559420402,19.536,35632.42,25.44,25.86,,,,,10.86,137.59,20.146,0.28216,0.999,1.5984,0.0901,0.1802
2019-06-01 20:40:00+00:00,1559421601,19.822,37998.11,27.13,27.41,,,,,11.44,147.12,19.528,0.27354,0.999,1.5984,0.027,0.054
2019-06-01 21:00:00+00:00,1559422801,19.723,34812.25,24.68,25.16,,,,,10.58,133.87,21.443,0.30034,0.9995,1.5992,0.05105,0.1021
2019-06-01 21:20:00+00:00,1559424002,19.885,35740.14,25.31,25.75,,,,,10.67,136,22.118,0.30982,1,1.6,0.0887,0.1774
2019-06-01 21:40:00+00:00,1559425201,20.185,36090.68,25.41,25.83,,,,,10.94,140.2,20.97,0.2937,1,1.6,0.0616,0.1232
2019-06-01 22:00:00+00:00,1559426402,20.15,35602.27,25.05,25.5,,,,,10.89,139.22,23.356,0.32715,1,1.6,0.03305,0.0661
2019-06-01 22:20:00+00:00,1559427602,20.443,35629.72,24.9,25.37,,,,,10.67,137.09,23.048,0.32283,1,1.6,0.0631,0.1262
2019-06-01 22:40:00+00:00,1559428802,20.524,38180.38,26.83,27.14,,,,,10.2,132.62,22.865,0.32028,1.001,1.6016,0,0
2019-06-01 23:00:00+00:00,1559430002,20.61,40000.08,28.2,28.38,,,,,10.1,132.67,24.578,0.34425,1.002,1.6032,0.0444,0.0888
2019-06-01 23:20:00+00:00,1559431201,20.64,39166.48,27.52,27.77,,,,,9.83,128.68,22.94,0.32131,1.001,1.6016,0.012,0.024
2019-06-01 23:40:00+00:00,1559432402,20.411,38097.79,26.84,27.14,,,,,9.68,125.69,19.899,0.27869,1.001,1.6016,-0.003,-0.006
2019-06-02 00:00:00+00:00,1559433602,20.529,36940.93,25.86,26.25,,,,,10.04,129.86,20.924,0.29305,1.0015,1.6024,0.03615,0.0723
2019-06-02 00:20:00+00:00,1559434801,20.5,36841.29,25.8,26.2,,,,,9.47,122.42,22.253,0.31168,1.004,1.6064,0.0166,0.0332
2019-06-02 00:40:00+00:00,1559436002,20.057,39006.4,27.78,28,,,,,9.36,121.41,27.331,0.38282,1.004,1.6064,0.0075,0.015
2019-06-02 01:00:00+00:00,1559437202,19.955,38723.27,27.62,27.85,,,,,9.05,117.06,27.075,0.37921,1.0055,1.6088,0.0098,0.0196
2019-06-02 01:20:00+00:00,1559438401,20.02,39711.59,28.36,28.53,,,,,8.15,105.95,28.633,0.40107,1.008,1.6128,0.0803,0.1606
2019-06-02 01:40:00+00:00,1559439602,19.803,39576.23,28.4,28.56,,,,,9.62,124.63,26.888,0.3766,1.01,1.616,0.0653,0.1306
2019-06-02 02:00:00+00:00,1559440801,19.664,42134,30.55,30.5,,,,,9.33,122.06,26.858,0.3762,1.012,1.6192,0.0319,0.0638
2019-06-02 02:20:00+00:00,1559442001,19.553,38997.95,28.11,28.29,,,,,8.8,113.27,27.007,0.3783,1.013,1.6208,0.1462,0.2924
2019-06-02 02:40:00+00:00,1559443201,19.301,40762.05,29.7,29.73,,,,,9.2,119.02,26.136,0.36607,1.013,1.6208,0.0746,0.1492
2019-06-02 03:00:00+00:00,1559444401,19.237,41979.18,30.74,30.66,,,,,9.05,117.71,26.747,0.3746,1.0155,1.6248,0.0672,0.1344
2019-06-02 03:20:00+00:00,1559445602,19.076,42222.14,31.06,30.95,,,,,8.68,112.72,28.675,0.40164,1.017,1.6272,0.1346,0.2692
2019-06-02 03:40:00+00:00,1559446801,18.972,43245.29,31.98,31.77,,,,,8.14,106.07,30.158,0.42242,1.018,1.6288,0.1363,0.2726
2019-06-02 04:00:00+00:00,1559448001,18.769,43976.96,32.75,32.45,,,,,7.61,99.31,29.329,0.41081,1.0215,1.6344,0.16055,0.3211
2019-06-02 04:20:00+00:00,1559449201,18.658,41966,31.16,31.04,,,,,7.07,91.19,28.483,0.39895,1.024,1.6384,0.151,0.302
2019-06-02 04:40:00+00:00,1559450402,18.534,41700.77,31.03,30.92,,,,,6.85,88.03,44.213,0.61929,1.024,1.6384,0.1371,0.2742
2019-06-02 05:00:00+00:00,1559451602,18.357,39612.39,29.43,29.49,,,,,6.32,80.23,49.942,0.69952,1.0285,1.6456,0.11605,0.2321
2019-06-02 05:20:00+00:00,1559452802,18.232,42204.15,31.68,31.51,,,,,5.68,72.82,49.291,0.69041,1.033,1.6528,0.1399,0.2798
2019-06-02 05:40:00+00:00,1559454001,18.26,41698.07,31.24,31.11,,,,,5.75,73.63,54.004,0.75644,1.034,1.6544,0.1167,0.2334
2019-06-02 06:00:00+00:00,1559455201,18.034,40728.18,30.6,30.54,,,,,5.05,64.1,55.251,0.57669,1.0355,1.6568,0.1153,0.2306
2019-06-02 06:20:00+00:00,1559456401,17.793,40519.19,30.6,30.54,,,,,6.05,76.43,64.332,0.90107,1.036,1.6576,0.1887,0.3774
2019-06-02 06:40:00+00:00,1559457601,17.78,39510.19,29.77,29.79,,,,,5.49,68.99,67.933,0.95151,1.036,1.6576,0.1263,0.2526
2019-06-02 07:00:00+00:00,1559458801,,,,,,,,,,,73.027,1.02287,1.0385,1.6616,0.10475,0.2095
2019-06-02 07:20:00+00:00,1559460002,17.385,39472.32,30.02,30.02,,,,,6.1,76.18,92.853,1.30054,1.039,1.6624,0.122,0.244
2019-06-02 07:40:00+00:00,1559461202,17.379,40441.74,30.85,30.77,,,,,5.86,73.54,77.837,1.09025,1.042,1.6672,0.1224,0.2448
2019-06-02 08:00:00+00:00,1559462401,17.241,40259.74,30.8,30.72,,,,,5.8,72.65,78.83,1.10417,1.0435,1.6696,0.0801,0.1602
2019-06-02 08:20:00+00:00,1559463601,17.182,39412.9,30.12,30.12,,,,,5.37,66.85,74.47,1.04306,1.043,1.6688,0.0502,0.1004
2019-06-02 08:40:00+00:00,1559464801,17.03,38090.16,29.11,29.2,,,,,4.89,60.41,71.775,1.00531,1.044,1.6704,0.0456,0.0912
2019-06-02 09:00:00+00:00,1559466001,17.035,38762.62,29.68,29.72,,,,,4.3,53.28,73.175,1.02492,1.044,1.6704,0.06915,0.1383
2019-06-02 09:20:00+00:00,1559467202,16.715,38639.83,29.81,29.84,,,,,4.93,60.68,68.898,0.96504,1.044,1.6704,0.0566,0.1132
2019-06-02 09:40:00+00:00,1559468401,16.799,38333.1,29.49,29.54,,,,,3.34,41.18,66.262,0.92815,1.044,1.6704,0.0644,0.1288
2019-06-02 10:00:00+00:00,1559469602,16.947,40508.95,31.24,31.12,,,,,3.12,38.98,54.483,0.76314,1.044,1.6704,0.0888,0.1776
2019-06-02 10:20:00+00:00,1559470802,17.011,38251.91,29.26,29.34,,,,,4.47,55.16,53.65,0.75144,1.043,1.6688,0.0047,0.0094
2019-06-02 10:40:00+00:00,1559472002,17.269,40773.11,31.22,31.09,,,,,4.61,57.88,34.879,0.48855,1.039,1.6624,-0.0407,-0.0814
2019-06-02 11:00:00+00:00,1559473201,17.425,39312.86,29.86,29.88,,,,,4.4,54.91,27.846,0.39003,1.011,1.6176,-0.559,-1.118
2019-06-02 11:20:00+00:00,1559474401,17.519,39454.49,29.91,29.92,,,,,4.04,50.54,23.976,0.33582,0.998,1.5968,-0.6913,-1.3826
2019-06-02 11:40:00+00:00,1559475602,17.539,39838.14,30.22,30.2,,,,,3.72,46.66,20.279,0.28402,0.992,1.5872,-0.7079,-1.4158
2019-06-02 12:00:00+00:00,1559476801,17.477,36537.18,27.49,27.73,,,,,3.61,44.55,20.074,0.28116,0.9835,1.5736,-0.62405,-1.2481
2019-06-02 12:20:00+00:00,1559478001,17.411,36580.04,27.57,27.81,,,,,3.16,38.97,16.255,0.22765,0.975,1.56,-0.6542,-1.3084
2019-06-02 12:40:00+00:00,1559479201,17.251,35405.15,26.7,27.01,,,,,2.56,31.22,19.498,0.2731,0.967,1.5472,-0.5993,-1.1986
2019-06-02 13:00:00+00:00,1559480401,17.008,35745.51,27.14,27.42,,,,,2.34,28.53,17.587,0.24635,0.9595,1.5352,-0.5649,-1.1298
2019-06-02 13:20:00+00:00,1559481601,17.107,34261.96,25.84,26.22,,,,,2.13,25.79,16.759,0.23473,0.951,1.5216,-0.6032,-1.2064
2019-06-02 13:40:00+00:00,1559482801,17.03,33480.43,25.23,25.67,,,,,2.13,25.64,16.172,0.22649,0.947,1.5152,-0.5679,-1.1358
2019-06-02 14:00:00+00:00,1559484002,16.96,32894.47,24.79,25.26,,,,,2.03,24.34,16.293,0.22824,0.939,1.5024,-0.6171,-1.2342
2019-06-02 14:20:00+00:00,1559485202,17.008,34191.44,25.84,26.23,,,,,0.72,8.74,20.192,0.2828,0.93,1.488,-0.5851,-1.1702
2019-06-02 14:40:00+00:00,1559486401,16.959,34610.89,26.22,26.58,,,,,0.56,6.76,18.479,0.25882,0.928,1.4848,-0.5449,-1.0898
2019-06-02 15:00:00+00:00,1559487602,17.014,34177.11,25.82,26.21,,,,,1.71,20.72,19.466,0.27264,0.946,1.5136,-0.0495,-0.099
2019-06-02 15:20:00+00:00,1559488801,17.091,31805.42,23.81,24.35,,,,,2.71,32.41,21.186,0.29674,0.942,1.5072,-0.0409,-0.0818
2019-06-02 15:40:00+00:00,1559490001,17.326,33281.12,24.88,25.35,,,,,3.68,44.59,18.311,0.25649,0.943,1.5088,0.0551,0.1102
2019-06-02 16:00:00+00:00,1559491202,17.523,34292.25,25.6,26,,,,,4.01,48.97,20.374,0.28536,0.9475,1.516,-0.0049,-0.0098
2019-06-02 16:20:00+00:00,1559492401,17.938,34206.68,25.27,25.7,,,,,4.85,59.54,21.52,0.2028,0.948,1.5168,0.0512,0.1024
2019-06-02 16:40:00+00:00,1559493602,18.274,31809.09,23.13,23.72,,,,,5.81,70.89,18.648,0.26118,0.948,1.5168,0.0242,0.0484
2019-06-02 17:00:00+00:00,1559494801,18.614,31297.79,22.53,23.17,,,,,6.46,79.07,21.663,0.30343,0.9495,1.5192,0.03845,0.0769
2019-06-02 17:20:00+00:00,1559496002,19.01,30388.77,21.61,22.3,,,,,6.93,84.95,16.9,0.23671,0.948,1.5168,0.1151,0.2302
2019-06-02 17:40:00+00:00,1559497201,19.423,33514.95,23.84,24.38,,,,,7.82,97.89,16.673,0.23354,0.949,1.5184,0.1039,0.2078
2019-06-02 18:00:00+00:00,1559498402,19.849,33098.41,23.27,23.86,,,,,8.06,101.37,18.618,0.26082,0.9515,1.5224,0.03925,0.0785
2019-06-02 18:20:00+00:00,1559499601,20.64,35913.55,25,25.46,,,,,9.16,118.17,19.89,0.27861,0.953,1.5248,0.0472,0.0944
2019-06-02 18:40:00+00:00,1559500801,21.293,37682.46,25.97,26.36,,,,,9.82,129,17.812,0.24952,0.952,1.5232,0.0928,0.1856
2019-06-02 19:00:00+00:00,1559502001,21.426,36150.62,24.73,25.22,,,,,10.22,133.5,19.748,0.27661,0.9545,1.5272,0.08305,0.1661
2019-06-02 19:20:00+00:00,1559503201,21.786,37461.44,25.51,25.94,,,,,10.32,136.32,13.682,-0.10417,0.956,1.5296,0.066,0.132
2019-06-02 19:40:00+00:00,1559504401,22.333,38948.37,26.3,26.68,,,,,10.4,139.47,21.409,0.29989,0.958,1.5328,0.0661,0.1322
2019-06-02 20:00:00+00:00,1559505602,23.21,41886.71,27.96,28.19,,,,,10.06,138.3,19.015,0.26636,0.96,1.536,0.12885,0.2577
2019-06-02 20:20:00+00:00,1559506802,23.564,42055.06,27.86,28.11,,,,,9.57,132.38,21.28,0.29806,0.955,1.528,0.1017,0.2034
2019-06-02 20:40:00+00:00,1559508001,23.919,41355.57,27.13,27.45,,,,,8.67,120.16,18.631,0.26096,0.95,1.52,0.1453,0.2906
2019-06-02 21:00:00+00:00,1559509202,24.085,38366.58,24.86,25.38,,,,,7.71,105.76,21.383,0.29949,0.9515,1.5224,0.06705,0.1341
2019-06-02 21:20:00+00:00,1559510401,24.236,38999.3,25.23,25.72,,,,,7.57,104.31,21.547,0.30181,0.956,1.5296,0.0832,0.1664
2019-06-02 21:40:00+00:00,1559511601,24.515,42017.79,27.25,27.57,,,,,7.19,100.79,23.604,0.33062,0.956,1.5296,0.0401,0.0802
2019-06-02 22:00:00+00:00,1559512802,24.819,41558.53,26.73,27.11,,,,,8.03,112.71,27.359,0.38325,0.9605,1.5368,0.04035,0.0807
2019-06-02 22:20:00+00:00,1559514002,23.794,39432.39,25.8,26.24,,,,,8.72,119.62,22.838,0.31988,0.963,1.5408,0.0462,0.0924
2019-06-02 22:40:00+00:00,1559515201,23.781,40504.49,26.59,26.96,,,,,9.18,126.5,17.705,0.248,0.964,1.5424,0.0405,0.081
2019-06-02 23:00:00+00:00,1559516401,23.932,39402.89,25.7,26.15,,,,,7.63,104.87,21.225,0.29728,0.966,1.5456,0.03115,0.0623
2019-06-02 23:20:00+00:00,1559517601,23.894,40966.49,26.86,27.2,,,,,9.53,131.72,21.138,0.29607,0.963,1.5408,0.0867,0.1734
2019-06-02 23:40:00+00:00,1559518802,23.774,43026.26,28.44,28.64,,,,,8.78,122.2,20.043,0.28074,0.966,1.5456,0.0478,0.0956
2019-06-03 00:00:00+00:00,1559520001,23.699,40008.25,26.27,26.67,,,,,9.45,129.8,20.955,0.29353,0.9675,1.548,0.05875,0.1175
2019-06-03 00:20:00+00:00,1559521202,23.62,43214.96,28.68,28.85,,,,,10.31,143.43,23.473,0.32876,0.97,1.552,0.0859,0.1718
2019-06-03 00:40:00+00:00,1559522402,23.512,39207.46,25.8,26.23,,,,,10.76,146.89,23.545,0.32978,0.97,1.552,0.0466,0.0932
2019-06-03 01:00:00+00:00,1559523602,23.426,43309.01,28.87,29.02,,,,,10.49,145.64,20.709,0.29006,0.971,1.5536,0.0619,0.1238
2019-06-03 01:20:00+00:00,1559524801,23.324,40296.2,26.71,27.06,,,,,11.1,151.84,22.556,0.31592,0.973,1.5568,0.0365,0.073
2019-06-03 01:40:00+00:00,1559526002,23.178,41627.38,27.78,28.03,,,,,10.56,144.9,22.997,0.3221,0.974,1.5584,0.0175,0.035
2019-06-03 02:00:00+00:00,1559527203,23.03,43649.75,29.39,29.48,,,,,10.55,145.73,24.596,0.34451,0.976,1.5616,0.0703,0.1406
2019-06-03 02:20:00+00:00,1559528401,22.958,44639.61,30.18,30.19,,,,,10.27,142.43,25.035,0.35066,0.975,1.56,0.0732,0.1464
2019-06-03 02:40:00+00:00,1559529602,22.635,44652.09,30.42,30.4,,,,,9.64,133.02,25.114,0.35181,0.978,1.5648,0.0573,0.1146
2019-06-03 03:00:00+00:00,1559530802,22.539,45112.54,30.83,30.77,,,,,7.95,109.79,21.027,0.29452,0.9805,1.5688,0.1001,0.2002
2019-06-03 03:20:00+00:00,1559532001,22.425,46108.61,31.68,31.52,,,,,7.79,107.89,34.712,0.4862,0.985,1.576,0.0799,0.1598
2019-06-03 03:40:00+00:00,1559533200,22.366,46184.44,31.78,31.61,,,,,5.89,81.52,45.205,0.63319,0.986,1.5776,0.1303,0.2606
2019-06-03 04:00:00+00:00,1559534401,21.036,44914.72,31.77,31.59,,,,,6.45,87.21,127.139,1.78081,0.9855,1.5768,0.0999,0.1998
2019-06-03 04:20:00+00:00,1559535602,20.888,43813.36,31.01,30.91,,,,,5.8,77.87,149.357,2.09199,0.988,1.5808,0.1395,0.279
2019-06-03 04:40:00+00:00,1559536801,20.866,45531.8,32.38,32.13,,,,,5.87,79.37,161.085,2.25626,0.992,1.5872,0.1356,0.2712
2019-06-03 05:00:00+00:00,1559538002,20.861,45281.92,32.19,31.96,,,,,6.19,83.66,159.587,2.23528,0.9935,1.5896,0.1582,0.3164
2019-06-03 05:20:00+00:00,1559539202,20.618,45371.26,32.44,32.18,,,,,5.75,77.39,164.521,2.3044,0.994,1.5904,0.1598,0.3196
2019-06-03 05:40:00+00:00,1559540402,20.426,44770.92,32.11,31.89,,,,,5.05,67.6,166.042,2.32567,0.996,1.5936,0.0838,0.1676
2019-06-03 06:00:00+00:00,1559541602,20.184,45022.87,32.5,32.23,,,,,5.39,72.02,165.319,2.31554,0.9985,1.5976,0.1688,0.3376
2019-06-03 06:20:00+00:00,1559542801,20.096,44498.53,32.14,31.91,,,,,4.68,62.29,163.876,2.2954,1.002,1.6032,0.1581,0.3162
2019-06-03 06:40:00+00:00,1559544001,19.908,44154.96,32.01,31.79,,,,,4.75,63.02,164.699,2.30688,1.003,1.6048,0.1327,0.2654
2019-06-03 07:00:00+00:00,1559545202,19.658,43104.55,31.34,31.2,,,,,3.16,41.52,167.48,2.34586,1.003,1.6048,0.13865,0.2773
2019-06-03 07:20:00+00:00,1559546401,19.468,44080.8,32.28,32.04,,,,,2.9,38.15,167.119,2.3408,1.003,1.6048,0.1553,0.3106
2019-06-03 07:40:00+00:00,1559547601,19.309,42883.43,31.43,31.27,,,,,3.36,43.9,163.78,2.29398,1.003,1.6048,0.1719,0.3438
2019-06-03 08:00:00+00:00,1559548801,19.142,42384.44,31.14,31.02,,,,,3.78,49.16,160.749,2.25155,1.0095,1.6152,0.12675,0.2535
2019-06-03 08:20:00+00:00,1559550001,18.876,42925.5,31.79,31.6,,,,,4.03,52.33,161.974,2.26869,1.01,1.616,0.1154,0.2308
2019-06-03 08:40:00+00:00,1559551202,18.717,42757.89,31.77,31.58,,,,,3.88,50.29,153.856,2.15498,1.01,1.616,0.0866,0.1732
2019-06-03 09:00:00+00:00,1559552402,18.508,42401.58,31.64,31.46,,,,,4.31,55.59,157.365,2.20416,1.0115,1.6184,0.0806,0.1612
2019-06-03 09:20:00+00:00,1559553601,18.505,41431.03,30.83,30.74,,,,,2.85,36.56,148.449,2.07928,1.012,1.6192,0.0533,0.1066
2019-06-03 09:40:00+00:00,1559554801,18.318,42489.27,31.86,31.66,,,,,1.51,19.4,142.289,1.99299,1.011,1.6176,0.0426,0.0852
2019-06-03 10:00:00+00:00,1559556001,18.148,41757.35,31.37,31.23,,,,,1.02,13.02,134.062,1.87778,1.013,1.6208,0.03575,0.0715
2019-06-03 10:20:00+00:00,1559557202,18.03,43104.76,32.6,32.32,,,,,2.61,33.51,125.504,1.7579,1.014,1.6224,0.0442,0.0884
2019-06-03 10:40:00+00:00,1559558401,18.511,42635.17,31.83,31.63,,,,,3.3,42.62,119.659,1.67603,1.013,1.6208,0.064,0.128
2019-06-03 11:00:00+00:00,1559559601,18.945,43133.45,31.91,31.7,,,,,3,39.06,87.974,1.2322,1.012,1.6192,-0.0228,-0.0456
2019-06-03 11:20:00+00:00,1559560801,19.319,41220.73,30.06,30.05,,,,,3.5,45.38,64.279,0.90035,0.987,1.5792,-0.5485,-1.097
2019-06-03 11:40:00+00:00,1559562002,,,,,,,,,,,44.494,0.62322,0.977,1.5632,-0.6483,-1.2966
2019-06-03 12:00:00+00:00,1559563201,19.8,40320.89,29,29.1,,,,,2.79,36.33,29.338,0.41091,0.9695,1.5512,-0.62205,-1.2441
2019-06-03 12:20:00+00:00,1559564402,19.806,40130.95,28.84,28.96,,,,,2.32,30.16,32.881,0.4605,0.963,1.5408,-0.6155,-1.231
2019-06-03 12:40:00+00:00,1559565601,19.809,40226.1,28.92,29.02,,,,,1.92,24.93,31.259,0.43784,0.956,1.5296,-0.6079,-1.2158
2019-06-03 13:00:00+00:00,1559566802,19.531,38480.28,27.71,27.93,,,,,1.37,17.57,29.138,0.40813,0.9485,1.5176,-0.59865,-1.1973
2019-06-03 13:20:00+00:00,1559568002,19.514,38373.25,27.63,27.86,,,,,1.09,14.01,25.028,0.35058,0.941,1.5056,-0.6445,-1.289
2019-06-03 13:40:00+00:00,1559569201,19.459,37611.97,27.06,27.34,,,,,0.86,10.99,24.709,0.3461,0.933,1.4928,-0.5913,-1.1826
2019-06-03 14:00:00+00:00,1559570401,19.455,37423.51,26.91,27.21,,,,,0.71,9.02,24.956,0.34956,0.9265,1.4824,-0.60095,-1.2019
2019-06-03 14:20:00+00:00,1559571602,19.279,37111.09,26.77,27.08,,,,,0.57,7.31,29.909,0.41895,0.919,1.4704,-0.5036,-1.0072
2019-06-03 14:40:00+00:00,1559572801,19.314,36542.15,26.3,26.65,,,,,0.54,6.89,28.258,0.3958,0.915,1.464,-0.5205,-1.041
2019-06-03 15:00:00+00:00,1559574001,19.336,37561.95,27.1,27.38,,,,,0.47,6.01,26.114,0.3658,0.906,1.4496,-0.507,-1.014
2019-06-03 15:20:00+00:00,1559575202,19.329,38173.21,27.59,27.83,,,,,0.4,5.16,27.515,0.38538,0.897,1.4352,-0.5004,-1.0008
2019-06-03 15:40:00+00:00,1559576402,19.286,38435.86,27.83,28.04,,,,,0.4,5.08,29.083,0.40736,0.903,1.4448,-0.4512,-0.9024
2019-06-03 16:00:00+00:00,1559577602,19.138,37830.66,27.44,27.69,,,,,0.42,5.3,27.127,0.37996,0.914,1.4624,0.04365,0.0873
2019-06-03 16:20:00+00:00,1559578802,19.226,38031.56,27.55,27.78,,,,,1.15,14.65,24.878,0.34847,0.909,1.4544,0.0313,0.0626
2019-06-03 16:40:00+00:00,1559580001,19.312,38252.27,27.67,27.89,,,,,1.65,21.05,26.571,0.37217,0.909,1.4544,0,0